Вернуться в каталог

DELTA 1 DEB

АктивенSSO
NORAD 35535·DEBRIS·🇺🇸 United States

Запущен Jun 12, 1975 с Vandenberg Space Force Base

Loading…

Ближайшие Пролёты (ближайшие 24 часа)

TLE

СвежийSource: Space-Track

Эпоха: Sep 13, 2026, 04:34 UTC

1 35535U 75052LH  26256.19056858  .00000003  00000-0  40317-4 0  9995
2 35535  98.8386 238.2112 0095348  37.9252 322.8567 13.79353281178013

Отслеживайте DELTA 1 DEB в реальном времени с AllMySat

Download on the App Store